Wolf Creek Pass, CO

5:10 AM MST on February 21, 2018 (GMT -0700)
Wolf Creek Pass

Weather History for KCPW - February, 2014

Change the Weather History Date:

Saturday, February 22, 2014

  Actual Average (KALS) Record (KALS)
Temperature  
Mean Temperature 18 °F -  
Max Temperature 23 °F 41 °F 60 °F (1958)
Min Temperature 12 °F 6 °F -20 °F (1939)
Degree Days  
Heating Degree Days 48    
Moisture  
Dew Point 6 °F    
Average Humidity 64    
Maximum Humidity 85    
Minimum Humidity 50    
Precipitation  
Precipitation 0.00 in - - ()
Sea Level Pressure  
Sea Level Pressure 29.98 in    
Wind  
Wind Speed 22 mph (SW)    
Max Wind Speed 32 mph    
Max Gust Speed 46 mph    
Visibility 10 miles    
Events Snow    
Averages and records for this station are not official NWS values.
T = Trace of Precipitation, MM = Missing Value Source: NWS Daily Summary

Daily Weather History Graph

Daily Weather History Graph

Search for Another Location

Airport or City:

Trip Planner

Search our weather history database for the weather conditions in past years. The results will help you decide how hot, cold, wet, or windy it might be!

Date:

Astronomy

Feb. 22, 2014 Rise Set
Actual Time 6:47 AM MST 5:54 PM MST
Civil Twilight 6:21 AM MST 6:20 PM MST
Nautical Twilight 5:50 AM MST 6:50 PM MST
Astronomical Twilight 5:20 AM MST 7:21 PM MST
Moon 12:43 AM MST (2/22) 11:10 AM MST (2/22)
Length of Visible Light 11h 59m
Length of Day
11h 06m
Waning Gibbous, 49% of the Moon is Illuminated
Feb 22
Waning Gibbous
Mar 1
New
Mar 8
First Quarter
Mar 16
Full
Mar 23
Last Quarter

Hourly Weather History & Observations

Time (MST) Temp. Windchill Dew Point Humidity Pressure Visibility Wind Dir Wind Speed Gust Speed Precip Events Conditions
12:02 AM 14.0 °F -3.9 °F -0.4 °F 53% 30.00 in 10.0 mi SW 20.7 mph 25.3 mph N/A   Clear
12:22 AM 14.0 °F -2.5 °F -0.4 °F 53% 29.99 in 10.0 mi SW 17.3 mph 23.0 mph N/A   Clear
12:42 AM 12.2 °F -5.3 °F 1.4 °F 62% 29.99 in 10.0 mi SW 18.4 mph - N/A   Clear
1:02 AM 12.2 °F -6.7 °F 1.4 °F 62% 29.99 in 10.0 mi SW 21.9 mph - N/A   Scattered Clouds
1:22 AM 12.2 °F -6.7 °F 1.4 °F 62% 29.98 in 10.0 mi SW 21.9 mph 27.6 mph N/A   Overcast
1:42 AM 12.2 °F -7.5 °F 1.4 °F 62% 29.98 in 10.0 mi SW 24.2 mph - N/A   Overcast
2:02 AM 12.2 °F -7.1 °F 1.4 °F 62% 29.98 in 10.0 mi SW 23.0 mph 26.5 mph N/A   Overcast
2:22 AM 12.2 °F -6.7 °F 1.4 °F 62% 29.97 in 10.0 mi SW 21.9 mph - N/A   Overcast
2:42 AM 12.2 °F -7.5 °F 1.4 °F 62% 29.97 in 10.0 mi SW 24.2 mph - N/A   Overcast
3:02 AM 12.2 °F -7.5 °F 3.2 °F 67% 29.96 in 7.0 mi SW 24.2 mph 28.8 mph N/A Snow Light Snow
3:22 AM 14.0 °F -3.0 °F 5.0 °F 67% 29.96 in 4.0 mi SW 18.4 mph - N/A Snow Light Snow
3:42 AM 12.2 °F -6.3 °F 3.2 °F 67% 29.95 in 10.0 mi SW 20.7 mph - N/A Snow Light Snow
4:02 AM 12.2 °F -5.8 °F 1.4 °F 62% 29.94 in 10.0 mi SW 19.6 mph - N/A   Overcast
4:22 AM 12.2 °F -5.8 °F 3.2 °F 67% 29.94 in 10.0 mi SW 19.6 mph - N/A   Overcast
4:42 AM 12.2 °F -6.7 °F 3.2 °F 67% 29.94 in 10.0 mi SW 21.9 mph - N/A   Overcast
5:02 AM 12.2 °F -6.7 °F 5.0 °F 73% 29.94 in 10.0 mi SW 21.9 mph - N/A   Overcast
5:22 AM 12.2 °F -6.3 °F 5.0 °F 73% 29.95 in 10.0 mi SW 20.7 mph - N/A   Overcast
5:42 AM 12.2 °F -6.3 °F 6.8 °F 79% 29.96 in 10.0 mi SW 20.7 mph 27.6 mph N/A   Overcast
6:02 AM 14.0 °F -5.1 °F 8.6 °F 79% 29.96 in 10.0 mi SW 24.2 mph 33.4 mph N/A   Overcast
6:22 AM 12.2 °F -7.9 °F 8.6 °F 85% 29.95 in 10.0 mi SW 25.3 mph 31.1 mph N/A   Overcast
6:42 AM 12.2 °F -5.8 °F 6.8 °F 79% 29.96 in 10.0 mi SW 19.6 mph 25.3 mph N/A   Mostly Cloudy
7:02 AM 12.2 °F -6.7 °F 6.8 °F 79% 29.96 in 10.0 mi SW 21.9 mph 26.5 mph N/A   Scattered Clouds
7:22 AM 12.2 °F -7.1 °F 5.0 °F 73% 29.96 in 10.0 mi SW 23.0 mph - N/A   Scattered Clouds
7:42 AM 12.2 °F -8.6 °F 5.0 °F 73% 29.95 in 10.0 mi SW 27.6 mph - N/A   Scattered Clouds
8:02 AM 12.2 °F -7.9 °F 5.0 °F 73% 29.96 in 10.0 mi SW 25.3 mph 31.1 mph N/A   Clear
8:22 AM 14.0 °F -4.3 °F 5.0 °F 67% 29.96 in 10.0 mi SW 21.9 mph 29.9 mph N/A   Clear
8:42 AM 14.0 °F -5.8 °F 5.0 °F 67% 29.97 in 10.0 mi SW 26.5 mph 31.1 mph N/A   Clear
9:02 AM 15.8 °F -1.9 °F 5.0 °F 62% 29.97 in 10.0 mi SW 21.9 mph 32.2 mph N/A   Clear
9:22 AM 17.6 °F 2.7 °F 6.8 °F 63% 29.98 in 10.0 mi SSW 16.1 mph 27.6 mph N/A   Clear
9:42 AM 17.6 °F 1.7 °F 6.8 °F 63% 29.98 in 10.0 mi SSW 18.4 mph 31.1 mph N/A   Clear
10:02 AM 19.4 °F 3.6 °F 6.8 °F 58% 29.98 in 10.0 mi SW 19.6 mph 32.2 mph N/A   Clear
10:22 AM 19.4 °F 4.1 °F 8.6 °F 63% 29.98 in 10.0 mi SW 18.4 mph 29.9 mph N/A   Clear
10:42 AM 19.4 °F 6.0 °F 8.6 °F 63% 29.99 in 10.0 mi SSW 13.8 mph 28.8 mph N/A   Clear
11:02 AM 19.4 °F 1.1 °F 8.6 °F 63% 29.98 in 10.0 mi SW 27.6 mph 34.5 mph N/A   Clear
11:22 AM 21.2 °F 4.5 °F 8.6 °F 58% 29.99 in 10.0 mi SSW 24.2 mph 35.7 mph N/A   Clear
11:42 AM 21.2 °F 4.2 °F 8.6 °F 58% 29.98 in 10.0 mi WSW 25.3 mph 35.7 mph N/A   Clear
12:01 PM 21.2 °F 6.0 °F 8.6 °F 58% 29.99 in 10.0 mi SSW 19.6 mph 34.5 mph N/A   Clear
12:22 PM 19.4 °F 4.5 °F 10.4 °F 68% 29.99 in 10.0 mi SW 17.3 mph 24.2 mph N/A   Mostly Cloudy
12:42 PM 19.4 °F 2.5 °F 10.4 °F 68% 29.98 in 10.0 mi SW 23.0 mph 29.9 mph N/A   Mostly Cloudy
1:02 PM 21.2 °F 6.0 °F 10.4 °F 63% 29.97 in 10.0 mi SW 19.6 mph 29.9 mph N/A   Mostly Cloudy
1:22 PM 21.2 °F 5.2 °F 10.4 °F 63% 29.96 in 10.0 mi SW 21.9 mph 35.7 mph N/A   Mostly Cloudy
1:42 PM 21.2 °F 6.0 °F 12.2 °F 68% 29.96 in 4.0 mi SW 19.6 mph 32.2 mph N/A Snow Light Snow
2:02 PM 19.4 °F 2.8 °F 10.4 °F 68% 29.94 in 7.0 mi WSW 21.9 mph 35.7 mph N/A   Overcast
2:22 PM 21.2 °F 5.2 °F 10.4 °F 63% 29.94 in 10.0 mi SW 21.9 mph 35.7 mph N/A   Overcast
2:42 PM 21.2 °F 3.5 °F 8.6 °F 58% 29.93 in 10.0 mi SW 27.6 mph 39.1 mph N/A   Overcast
3:02 PM 21.2 °F 3.9 °F 8.6 °F 58% 29.93 in 10.0 mi SW 26.5 mph 46.0 mph N/A   Overcast
3:22 PM 21.2 °F 2.7 °F 8.6 °F 58% 29.93 in 10.0 mi SW 31.1 mph 42.6 mph N/A   Overcast
3:42 PM 23.0 °F 5.7 °F 10.4 °F 59% 29.93 in 10.0 mi SW 28.8 mph 42.6 mph N/A   Overcast
4:02 PM 21.2 °F 4.5 °F 8.6 °F 58% 29.93 in 10.0 mi SW 24.2 mph 42.6 mph N/A   Overcast
4:22 PM 21.2 °F 2.7 °F 8.6 °F 58% 29.94 in 10.0 mi WSW 31.1 mph 44.9 mph N/A   Overcast
4:42 PM 21.2 °F 4.9 °F 8.6 °F 58% 29.94 in 10.0 mi SW 23.0 mph 36.8 mph N/A   Overcast
5:02 PM 23.0 °F 6.3 °F 8.6 °F 54% 29.96 in 10.0 mi SW 26.5 mph 39.1 mph N/A   Overcast
5:22 PM 21.2 °F 4.2 °F 8.6 °F 58% 29.96 in 10.0 mi SW 25.3 mph 36.8 mph N/A   Overcast
5:42 PM 21.2 °F 4.5 °F 6.8 °F 54% 29.96 in 10.0 mi SSW 24.2 mph 34.5 mph N/A   Overcast
6:02 PM 21.2 °F 4.9 °F 5.0 °F 50% 29.97 in 10.0 mi SW 23.0 mph 36.8 mph N/A   Mostly Cloudy
6:22 PM 19.4 °F 3.6 °F 5.0 °F 54% 29.98 in 10.0 mi SW 19.6 mph 36.8 mph N/A   Scattered Clouds
6:42 PM 19.4 °F 3.2 °F 5.0 °F 54% 29.99 in 10.0 mi SW 20.7 mph 31.1 mph N/A   Scattered Clouds
7:02 PM 19.4 °F 2.8 °F 5.0 °F 54% 29.99 in 10.0 mi SW 21.9 mph 31.1 mph N/A   Clear
7:22 PM 19.4 °F 2.5 °F 5.0 °F 54% 30.00 in 10.0 mi SW 23.0 mph 34.5 mph N/A   Clear
7:42 PM 17.6 °F -1.3 °F 5.0 °F 58% 29.99 in 10.0 mi SW 27.6 mph 34.5 mph N/A   Clear
8:02 PM 17.6 °F -0.3 °F 5.0 °F 58% 30.00 in 10.0 mi SW 24.2 mph 32.2 mph N/A   Clear
8:22 PM 17.6 °F 0.5 °F 6.8 °F 63% 30.01 in 10.0 mi SW 21.9 mph 29.9 mph N/A   Clear
8:42 PM 17.6 °F 1.7 °F 6.8 °F 63% 30.01 in 10.0 mi SW 18.4 mph 27.6 mph N/A   Clear
9:02 PM 15.8 °F -1.5 °F 6.8 °F 68% 30.01 in 10.0 mi SW 20.7 mph 27.6 mph N/A   Clear
9:22 PM 15.8 °F -2.3 °F 6.8 °F 68% 30.02 in 10.0 mi SW 23.0 mph 32.2 mph N/A   Clear
9:42 PM 17.6 °F -1.6 °F 8.6 °F 68% 30.02 in 10.0 mi SW 28.8 mph 38.0 mph N/A   Clear
10:02 PM 17.6 °F -2.5 °F 8.6 °F 68% 30.02 in 10.0 mi SW 32.2 mph 39.1 mph N/A   Clear
10:22 PM 17.6 °F -1.6 °F 8.6 °F 68% 30.04 in 10.0 mi SW 28.8 mph 36.8 mph N/A   Clear
10:42 PM 15.8 °F -1.9 °F 8.6 °F 73% 30.04 in 10.0 mi SW 21.9 mph 29.9 mph N/A   Clear
11:02 PM 15.8 °F -3.4 °F 8.6 °F 73% 30.05 in 10.0 mi SW 26.5 mph 33.4 mph N/A   Clear
11:22 PM 17.6 °F -2.2 °F 8.6 °F 68% 30.05 in 10.0 mi SW 31.1 mph 36.8 mph N/A   Clear
11:42 PM 17.6 °F -1.6 °F 8.6 °F 68% 30.05 in 10.0 mi SW 28.8 mph 38.0 mph N/A   Clear